USA 153                 
1 26575U 00065A   19260.83777051 -.00000323  00000-0  00000+0 0  9990
2 26575   7.4509  51.3836 0001463 115.8180 265.3509  1.00272022  6907
IABS R/B                
1 26577U 00065C   19259.61319077  .00000037  00000-0  00000-0 0  9998
2 26577  13.1824  20.8588 0055987 218.3233 141.3192  1.01177956  1273